This is the latest recevied weather packets stored in our database for station/object T10BNorth. If no packets are shown the sender has not sent any weather packets the latest 10 day(s).
| Time | Temp. | Humidity | Pressure | Rain* | Wind** | Luminosity | Snow |
|---|---|---|---|---|---|---|---|
| 1777489511 | 13.89° C | 63% | 1012.2 hPa | 0 mm | - | 524 W/m² | - |
| 1777489451 | 13.89° C | 62% | 1012.3 hPa | 0 mm | - | 738 W/m² | - |
| 1777489392 | 13.89° C | 64% | 1012.3 hPa | 0 mm | - | 738 W/m² | - |
| 1777489331 | 13.89° C | 63% | 1012.3 hPa | 0 mm | - | 563 W/m² | - |
| 1777489273 | 13.33° C | 64% | 1012.3 hPa | 0 mm | - | 563 W/m² | - |
| 1777489232 | 13.33° C | 62% | 1012.3 hPa | 0 mm | - | 563 W/m² | - |
| 1777489209 | 13.33° C | 63% | 1012.4 hPa | 0 mm | - | 538 W/m² | - |
| 1777489090 | 13.33° C | 62% | 1012.4 hPa | 0 mm | - | 824 W/m² | - |
| 1777489030 | 13.33° C | 63% | 1012.4 hPa | 0 mm | - | 824 W/m² | - |
| 1777488970 | 13.33° C | 64% | 1012.5 hPa | 0 mm | - | 501 W/m² | - |
| 1777488929 | 13.33° C | 63% | 1012.5 hPa | 0 mm | - | 501 W/m² | - |
| 1777488908 | 13.33° C | 65% | 1012.5 hPa | 0 mm | - | 520 W/m² | - |
| 1777488792 | 13.33° C | 65% | 1012.5 hPa | 0 mm | - | 570 W/m² | - |
| 1777488725 | 13.33° C | 64% | 1012.4 hPa | 0 mm | - | 494 W/m² | - |
| 1777488665 | 13.33° C | 65% | 1012.5 hPa | 0 mm | - | 459 W/m² | - |
| 1777488607 | 13.33° C | 64% | 1012.5 hPa | 0 mm | - | 438 W/m² | - |
| 1777488547 | 13.33° C | 65% | 1012.5 hPa | 0 mm | - | 427 W/m² | - |
| 1777488486 | 13.33° C | 65% | 1012.7 hPa | 0 mm | - | 448 W/m² | - |
| 1777488425 | 13.33° C | 66% | 1012.5 hPa | 0 mm | - | 482 W/m² | - |
| 1777488367 | 13.33° C | 65% | 1012.7 hPa | 0 mm | - | 512 W/m² | - |
| 1777488307 | 13.33° C | 65% | 1012.5 hPa | 0 mm | - | 747 W/m² | - |
| 1777488247 | 13.33° C | 65% | 1012.7 hPa | 0 mm | - | 747 W/m² | - |
| 1777488185 | 13.33° C | 64% | 1012.7 hPa | 0 mm | - | 766 W/m² | - |
| 1777488131 | 13.33° C | 66% | 1012.7 hPa | 0 mm | - | 793 W/m² | - |
| 1777488065 | 13.33° C | 66% | 1012.7 hPa | 0 mm | - | 793 W/m² | - |
* Rain latest hour (hover to see other rain measurements)
** Current wind speed in m/s (hover to see current wind gust speed)